Regional Weather Roundup
Issued by NWS Bismarck, ND

Home | Current Version | Previous Version | Text Only | Print | Product List | Glossary On
Versions: 1 2 3 4 5 6 7 8 9 10 11 12 13 14 15 16 17 18 19 20 21 22 23 24 25 26 27 28 29 30 31 32 33 34 35 36 37 38 39 40 41 42 43 44 45 46 47 48 49 50
686
ASUS43 KBIS 301202
RWRBIS

NWR BROADCAST TEXT
NATIONAL WEATHER SERVICE BISMARCK ND
700 AM CDT MON MAY 30 2016

NOTE: "FAIR" INDICATES FEW OR NO CLOUDS BELOW 12,000 FEET WITH NO
SIGNIFICANT WEATHER AND/OR OBSTRUCTIONS TO VISIBILITY.


CITY           SKY/WX    TMP DP  RH WIND       PRES   REMARKS
WILLISTON      CLOUDY    48  43  82 NE5       29.90S
MINOT          CLEAR     53  48  83 CALM      29.89S
MINOT AFB      CLEAR     50  47  88 CALM      29.89R
BISMARCK       CLEAR     53  52  96 NE3       29.94S
DICKINSON      CLEAR     50  46  86 SE3       29.89F
GARRISON         N/A     53  49  86 NE3       29.91S
HETTINGER ARPT CLEAR     52  48  86 SE3       29.91F
JAMESTOWN      SUNNY     56  52  86 S7        29.94R
CARRINGTON     FAIR      57  52  82 S6        29.95S
OAKES            N/A    N/A N/A N/A MISG        N/A
STANLEY        FAIR      48  48 100 CALM      29.94S
$$

CITY           SKY/WX    TMP DP  RH WIND       PRES   REMARKS
GRAND FORKS    MOSUNNY   59  49  69 CALM      29.91S
GRAND FORKS AF MOSUNNY   61  52  74 W3        29.92R
DEVILS LAKE    MOSUNNY   56  51  84 S6        29.93R
FARGO          MOSUNNY   59  48  67 SE6       29.94R
GRAFTON        PTSUNNY   54  54 100 S5        29.93S
GWINNER        FAIR      57  54  88 SW7       29.97R
LANGDON        FAIR      52  50  93 S5        29.93S
$$

CITY           SKY/WX    TMP DP  RH WIND       PRES   REMARKS
ABERDEEN       SUNNY     57  52  83 SE8       29.94F
MOBRIDGE       CLEAR     58  54  86 SE7       29.90S
BUFFALO          N/A     55  51  86 E8        29.82F
RAPID CITY     CLOUDY    48  47  96 E3        29.90S
GLASGOW        CLOUDY    58  44  60 SW8       29.92R
SIDNEY         CLOUDY    50  45  81 CALM      29.89S
WOLF POINT     CLOUDY    61  44  53 SW6       29.90F
GLENDIVE       CLOUDY    57  43  58 NW7       29.96R
MILES CITY     MOCLDY    56  50  80 N14       29.88S
BAKER          CLOUDY    55  49  80 VRB3      29.89F
$$

CITY           SKY/WX    TMP DP  RH WIND       PRES   REMARKS
BILLINGS       CLOUDY    53  49  86 NW7       30.00R
GREAT FALLS    CLEAR     44  38  79 NW3       30.02R
$$





USA.gov is the U.S. government's official web portal to all federal, state and local government web resources and services.